Location: Splawn
(30.9202°N, 96.9858°W)
Time: 09:02:21
(UTC+00:00)

deb Explorer IX - All Passes

Search period start: 28 February 2020 00:00
Search period end: 09 March 2020 00:00
Orbit: 549 x 1099 km, 38.8° (Epoch: 27 February)

Date Brightness Start Highest point End Pass type
(mag) Time Alt. Az. Time Alt. Az. Time Alt. Az.
28 Feb - 11:44:02 10° S 11:48:10 19° SE 11:51:56 10° E visible
28 Feb - 13:29:15 10° SW 13:35:01 74° SSE 13:39:56 10° ENE daylight
28 Feb - 15:17:20 10° W 15:22:11 39° NNW 15:26:25 10° NE daylight
28 Feb - 17:05:41 10° WNW 17:09:43 30° N 17:13:27 10° ENE daylight
28 Feb - 18:52:49 10° WNW 18:57:01 62° NNE 19:01:05 10° ESE daylight
28 Feb - 20:40:11 10° W 20:43:34 25° SW 20:47:03 10° SSE daylight
29 Feb - 11:21:21 10° S 11:25:47 20° SE 11:29:49 10° E visible
29 Feb - 13:06:43 10° WSW 13:12:41 76° SSE 13:17:43 10° ENE daylight
29 Feb - 14:54:52 10° W 14:59:53 40° NNW 15:04:14 10° NE daylight
29 Feb - 16:43:17 10° WNW 16:47:28 30° N 16:51:16 10° ENE daylight
29 Feb - 18:30:29 10° WNW 18:34:47 64° NNE 18:38:51 10° ESE daylight
29 Feb - 20:17:57 10° W 20:21:19 24° SW 20:24:41 10° SSE daylight
01 Mar - 10:58:40 10° S 11:03:22 21° SE 11:07:39 10° E visible
01 Mar - 12:44:09 10° WSW 12:50:18 77° SSE 12:55:31 10° ENE daylight
01 Mar - 14:32:23 10° W 14:37:34 41° NNW 14:42:04 10° ENE daylight
01 Mar - 16:20:51 10° WNW 16:25:11 31° N 16:29:06 10° ENE daylight
01 Mar - 18:08:08 10° WNW 18:12:32 66° NNE 18:16:37 10° ESE daylight
01 Mar - 19:55:42 10° W 19:59:02 23° SW 20:02:21 10° SSE daylight
02 Mar - 10:35:59 10° S 10:40:57 22° SE 10:45:28 10° E visible
02 Mar - 12:21:35 10° WSW 12:27:56 79° SSE 12:33:18 10° ENE visible
02 Mar - 14:09:52 10° W 14:15:14 41° NNW 14:19:52 10° ENE daylight
02 Mar - 15:58:24 10° WNW 16:02:55 32° N 16:06:55 10° ENE daylight
02 Mar - 17:45:45 10° WNW 17:50:17 68° NNE 17:54:25 10° ESE daylight
02 Mar - 19:33:26 10° W 19:36:46 23° SW 19:40:02 10° SSE daylight
03 Mar - 10:13:19 10° SSW 10:18:31 23° SE 10:23:15 10° E visible
03 Mar - 11:59:01 10° WSW 12:05:31 80° SSE 12:11:04 10° ENE visible
03 Mar - 13:47:21 10° W 13:52:54 42° NNW 13:57:40 10° ENE daylight
03 Mar - 15:35:55 10° WNW 15:40:37 33° N 15:44:45 10° ENE daylight
03 Mar - 17:23:21 10° WNW 17:28:01 69° NNE 17:32:12 10° ESE daylight
03 Mar - 19:11:08 10° W 19:14:30 23° SW 19:17:45 10° SSE daylight
04 Mar - 09:50:40 10° SSW 09:56:04 24° SE 10:01:01 10° E visible
04 Mar - 11:36:26 10° WSW 11:43:06 82° SSE 11:48:49 10° ENE visible
04 Mar - 13:24:48 10° W 13:30:32 43° NNW 13:35:28 10° ENE daylight
04 Mar - 15:13:26 10° WNW 15:18:19 34° N 15:22:35 10° ENE daylight
04 Mar - 17:00:56 10° WNW 17:05:45 71° NNE 17:10:00 10° ESE daylight
04 Mar - 18:48:48 10° W 18:52:13 22° SW 18:55:27 10° SSE daylight
05 Mar - 09:28:00 10° SSW 09:33:36 26° SE 09:38:45 10° E visible
05 Mar - 11:13:51 10° WSW 11:20:40 83° SSE 11:26:33 10° ENE visible
05 Mar - 13:02:16 10° W 13:08:11 43° NNW 13:13:16 10° ENE daylight
05 Mar - 14:50:55 10° WNW 14:56:00 36° N 15:00:25 10° ENE daylight
05 Mar - 16:38:30 10° WNW 16:43:28 73° NNE 16:47:48 10° ESE daylight
05 Mar - 18:26:28 10° W 18:29:56 22° SW 18:33:12 10° SSE daylight
06 Mar - 09:05:22 10° SSW 09:11:07 27° SE 09:16:28 10° E visible
06 Mar - 10:51:16 10° WSW 10:58:13 84° SSE 11:04:16 10° ENE visible
06 Mar - 12:39:42 10° W 12:45:48 44° NNW 12:51:02 10° ENE daylight
06 Mar - 14:28:23 10° WNW 14:33:40 37° N 14:38:14 10° ENE daylight
06 Mar - 16:16:02 10° WNW 16:21:11 75° NNE 16:25:36 10° ESE daylight
06 Mar - 18:04:05 10° W 18:07:38 22° SW 18:10:56 10° SSE daylight
07 Mar - 08:42:45 10° SSW 08:48:38 27° SE 08:54:09 10° E visible
07 Mar - 10:28:42 10° WSW 10:35:46 86° SSE 10:41:59 10° ENE visible
07 Mar - 12:17:08 10° W 12:23:23 45° NNW 12:28:48 10° ENE visible
07 Mar - 14:05:51 10° WNW 14:11:20 38° N 14:16:03 10° ENE daylight
07 Mar - 15:53:33 10° WNW 15:58:52 77° NNE 16:03:25 10° ESE daylight
07 Mar - 17:41:41 10° W 17:45:20 22° SW 17:48:42 10° SSE daylight
08 Mar - 08:20:08 10° SSW 08:26:08 28° SE 08:31:49 10° E visible
08 Mar - 10:06:07 10° WSW 10:13:17 87° SSE 10:19:40 10° ENE visible
08 Mar - 11:54:34 10° W 12:00:58 45° NNW 12:06:33 10° ENE visible
08 Mar - 13:43:17 10° WNW 13:48:59 39° N 13:53:52 10° ENE daylight
08 Mar - 15:31:03 10° WNW 15:36:33 79° NNE 15:41:14 10° ESE daylight
08 Mar - 17:19:16 10° W 17:23:01 22° SW 17:26:27 10° SSE daylight
